Simultaneous Nadir Overpasses (SNOs) Predictions

Prediction of SNOs between NOAA-19 and TERRA Satellite Orbit:

Table of predicted SNOs for the next 14.0 days since TLE Epoch: 8/17/2012
Index Date (NOAA-19) Time (NOAA-19) NOAA-19 Lat,Lon Date (TERRA) Time (TERRA) TERRA Lat,Lon Distance(km) Time Diff (sec)
1 08/19/2012 20:32:12 -69.14, 51.19 08/19/2012 20:33:10 -69.15, 51.25 2.52 58
2 08/19/2012 21:23:17 68.98,-141.36 08/19/2012 21:22:38 68.98,-141.31 1.98 39
3 08/22/2012 01:16:49 -69.10, -19.90 08/22/2012 01:17:30 -69.08, -19.92 2.27 41
4 08/22/2012 02:07:54 68.92, 147.57 08/22/2012 02:06:58 68.91, 147.51 2.29 56
5 08/24/2012 06:01:26 -69.07, -91.01 08/24/2012 06:01:49 -69.06, -91.02 1.14 23
6 08/24/2012 06:52:30 68.82, 76.55 08/24/2012 06:51:18 68.83, 76.34 8.64 72
7 08/26/2012 09:55:20 69.75, 29.59 08/26/2012 09:56:29 69.63, 31.02 56.86 69
8 08/26/2012 10:46:03 -69.05,-162.13 08/26/2012 10:46:08 -69.03,-162.14 1.83 5
9 08/26/2012 11:36:56 68.21, 6.22 08/26/2012 11:35:47 68.24, 4.54 69.61 69
10 08/28/2012 14:39:46 69.15, -40.69 08/28/2012 14:40:56 69.15, -40.70 0.12 70
11 08/28/2012 15:30:39 -68.99, 126.80 08/28/2012 15:30:27 -69.00, 126.74 2.75 12
12 08/30/2012 19:24:21 69.09,-111.76 08/30/2012 19:25:14 69.11,-111.83 3.04 53
13 08/30/2012 20:15:15 -68.99, 55.65 08/30/2012 20:14:44 -69.01, 55.68 3.12 31




NCC Satellite Simultaneous Nadir Overpasses (SNOs) Prediction Service
